Harrison, AR

1:58 AM CDT on April 27, 2018 (GMT -0500)
Boone County

Weather History for KHRO - April, 2012

Change the Weather History Date:

Monday, April 2, 2012

  Actual Average Record
Temperature  
Mean Temperature 75 °F 54 °F  
Max Temperature 86 °F 66 °F 92 °F (1946)
Min Temperature 63 °F 43 °F 25 °F (1975)
Degree Days  
Heating Degree Days 0 11  
Month to date heating degree days 0 23  
Since 1 July heating degree days 2915 3703  
Cooling Degree Days 10 1  
Month to date cooling degree days 20 2  
Year to date cooling degree days 76 8  
Growing Degree Days 25 (Base 50)    
Moisture  
Dew Point 57 °F    
Average Humidity 57    
Maximum Humidity 87    
Minimum Humidity 27    
Precipitation  
Precipitation 0.00 in 0.13 in 1.32 in (1945)
Month to date precipitation 0.00 0.26  
Year to date precipitation 11.26 9.25  
Snow  
Snow 0.00 in 0.10 in T in (2013)
Month to date snowfall 0.0 0.2  
Since 1 July snowfall 2.1 11.4  
Snow Depth 0.00 in    
Sea Level Pressure  
Sea Level Pressure 29.72 in    
Wind  
Wind Speed 8 mph (SSE)    
Max Wind Speed 17 mph    
Max Gust Speed 23 mph    
Visibility 9 miles    
Events      
T = Trace of Precipitation, MM = Missing Value Source: NWS Daily Summary

Daily Weather History Graph

Daily Weather History Graph

Search for Another Location

Airport or City:

Astronomy

Apr. 02, 2012 Rise Set
Actual Time 6:56 AM CDT 7:35 PM CDT
Civil Twilight 6:30 AM CDT 8:01 PM CDT
Nautical Twilight 6:00 AM CDT 8:32 PM CDT
Astronomical Twilight 5:28 AM CDT 9:03 PM CDT
Moon 3:19 PM CDT (4/2) 4:02 AM CDT (4/2)
Length of Visible Light 13h 31m
Length of Day
12h 39m
Waxing Gibbous, 78% of the Moon is Illuminated
Apr 2
Waxing Gibbous
Apr 6
Full
Apr 13
Last Quarter
Apr 21
New
Apr 29
First Quarter

Hourly Weather History & Observations

Time (CDT) Temp. Heat Index Dew Point Humidity Pressure Visibility Wind Dir Wind Speed Gust Speed Precip Events Conditions
12:53 AM 70.0 °F - 62.1 °F 76% 29.66 in 9.0 mi South 9.2 mph - N/A   Clear
1:53 AM 69.1 °F - 62.1 °F 78% 29.65 in 9.0 mi South 6.9 mph - N/A   Clear
2:53 AM 66.2 °F - 60.8 °F 83% 29.70 in 8.0 mi South 5.8 mph - N/A   Clear
3:53 AM 66.9 °F - 61.0 °F 81% 29.65 in 8.0 mi Calm Calm - N/A   Clear
4:53 AM 64.0 °F - 60.1 °F 87% 29.66 in 8.0 mi ESE 4.6 mph - N/A   Clear
5:53 AM 66.0 °F - 61.0 °F 84% 29.67 in 9.0 mi South 13.8 mph - N/A   Clear
6:53 AM 66.0 °F - 61.0 °F 84% 29.69 in 8.0 mi South 9.2 mph - N/A   Clear
7:53 AM 68.0 °F - 62.1 °F 81% 29.71 in 7.0 mi Variable 3.5 mph - N/A   Clear
8:53 AM 72.0 °F - 61.0 °F 68% 29.73 in 10.0 mi Variable 5.8 mph - N/A   Clear
9:53 AM 75.0 °F - 59.0 °F 57% 29.73 in 9.0 mi Variable 6.9 mph - N/A   Clear
10:53 AM 77.0 °F - 60.1 °F 56% 29.75 in 10.0 mi South 5.8 mph - N/A   Clear
11:53 AM 80.1 °F 80.9 °F 60.1 °F 50% 29.75 in 10.0 mi SE 10.4 mph - N/A   Clear
12:53 PM 82.0 °F 82.0 °F 57.9 °F 44% 29.74 in 10.0 mi SE 12.7 mph 17.3 mph N/A   Clear
1:53 PM 84.0 °F 82.5 °F 53.1 °F 34% 29.72 in 10.0 mi SE 9.2 mph - N/A   Clear
2:53 PM 84.9 °F 83.3 °F 54.0 °F 34% 29.71 in 10.0 mi ESE 6.9 mph - N/A   Clear
3:53 PM 86.0 °F - 48.9 °F 28% 29.68 in 10.0 mi ESE 10.4 mph - N/A   Clear
4:53 PM 86.0 °F - 51.1 °F 30% 29.68 in 10.0 mi East 9.2 mph - N/A   Clear
5:53 PM 84.0 °F - 46.9 °F 27% 29.69 in 10.0 mi SE 12.7 mph - N/A   Clear
6:53 PM 78.1 °F - 51.1 °F 39% 29.71 in 10.0 mi SSE 10.4 mph - N/A   Clear
7:53 PM 75.0 °F - 55.9 °F 51% 29.74 in 10.0 mi South 13.8 mph - N/A   Clear
8:53 PM 73.0 °F - 59.0 °F 61% 29.77 in 10.0 mi SE 9.2 mph - N/A   Clear
9:53 PM 71.1 °F - 54.0 °F 55% 29.80 in 10.0 mi South 11.5 mph 21.9 mph N/A   Clear
10:53 PM 66.9 °F - 54.0 °F 63% 29.79 in 10.0 mi SE 5.8 mph - N/A   Clear
11:53 PM 64.9 °F - 53.1 °F 65% 29.79 in 10.0 mi East 3.5 mph - N/A   Clear